Albertville, AL

1:47 AM CST on February 23, 2017 (GMT -0600)
Albertville

Weather History for K8A0 - September, 2013

Change the Weather History Date:

Wednesday, September 25, 2013

  Actual Average (KGAD) Record (KGAD)
Temperature  
Mean Temperature 68 °F -  
Max Temperature 73 °F 78 °F 100 °F (1931)
Min Temperature 62 °F 54 °F 44 °F (1949)
Cooling Degree Days 2    
Growing Degree Days 18 (Base 50)    
Moisture  
Dew Point 58 °F    
Average Humidity 63    
Maximum Humidity 88    
Minimum Humidity 44    
Precipitation  
Precipitation 0.08 in - - ()
Sea Level Pressure  
Sea Level Pressure 29.85 in    
Wind  
Wind Speed 2 mph (East)    
Max Wind Speed 7 mph    
Max Gust Speed -    
Visibility 7 miles    
Events Rain    
Averages and records for this station are not official NWS values.
T = Trace of Precipitation, MM = Missing Value Source: NWS Daily Summary

Daily Weather History Graph

Daily Weather History Graph

Search for Another Location

Airport or City:

Trip Planner

Search our weather history database for the weather conditions in past years. The results will help you decide how hot, cold, wet, or windy it might be!

Date:

Astronomy

Sep. 25, 2013 Rise Set
Actual Time 6:35 AM CDT 6:37 PM CDT
Civil Twilight 6:10 AM CDT 7:02 PM CDT
Nautical Twilight 5:41 AM CDT 7:31 PM CDT
Astronomical Twilight 5:11 AM CDT 8:00 PM CDT
Moon 10:56 PM CDT (9/25) 12:26 PM CDT (9/25)
Length of Visible Light 12h 51m
Length of Day
12h 01m
Waning Gibbous, 64% of the Moon is Illuminated
Sep 25
Waning Gibbous
Sep 26
Last Quarter
Oct 4
New
Oct 11
First Quarter
Oct 18
Full

Hourly Weather History & Observations

Time (CDT) Temp. Dew Point Humidity Pressure Visibility Wind Dir Wind Speed Gust Speed Precip Events Conditions
12:15 AM 64.4 °F - N/A% 29.87 in 7.0 mi East 3.5 mph - N/A   Overcast
12:35 AM 64.4 °F - N/A% 29.87 in 7.0 mi East 4.6 mph - N/A   Drizzle
12:55 AM 64.4 °F - N/A% 29.86 in 5.0 mi ESE 3.5 mph - N/A   Haze
1:15 AM 64.4 °F - N/A% 29.86 in 5.0 mi East 5.8 mph - N/A   Light Drizzle
1:35 AM 64.4 °F - N/A% 29.85 in 3.0 mi East 4.6 mph - 0.03 in Rain Light Rain
1:55 AM 64.4 °F - N/A% 29.85 in 2.5 mi East 4.6 mph - 0.07 in Rain Light Rain
2:15 AM 64.4 °F - N/A% 29.85 in 4.0 mi Calm Calm - 0.01 in   Light Drizzle
2:35 AM 64.4 °F - N/A% 29.85 in 3.0 mi Calm Calm - 0.01 in   Overcast
2:55 AM 64.4 °F - N/A% 29.84 in 3.0 mi ENE 3.5 mph - 0.01 in   Overcast
3:15 AM 64.4 °F - N/A% 29.84 in 4.0 mi Calm Calm - N/A   Haze
3:35 AM 64.4 °F - N/A% 29.83 in 3.0 mi ESE 3.5 mph - N/A   Overcast
3:55 AM 64.4 °F - N/A% 29.84 in 4.0 mi Calm Calm - N/A   Haze
4:15 AM 64.4 °F - N/A% 29.83 in 4.0 mi Calm Calm - N/A   Haze
4:35 AM 64.4 °F - N/A% 29.83 in 3.0 mi Calm Calm - N/A   Overcast
4:55 AM 64.4 °F - N/A% 29.83 in 3.0 mi Calm Calm - N/A   Overcast
5:15 AM 64.4 °F - N/A% 29.84 in 4.0 mi Calm Calm - N/A   Haze
5:35 AM 64.4 °F - N/A% 29.84 in 4.0 mi Calm Calm - N/A   Haze
5:55 AM 64.4 °F - N/A% 29.84 in 4.0 mi Calm Calm - N/A   Haze
6:15 AM 64.4 °F - N/A% 29.84 in 5.0 mi Calm Calm - N/A   Haze
6:35 AM 64.4 °F - N/A% 29.85 in 4.0 mi Calm Calm - N/A   Haze
6:55 AM 64.4 °F - N/A% 29.85 in 4.0 mi Calm Calm - N/A   Haze
7:15 AM 64.4 °F - N/A% 29.85 in 2.5 mi Calm Calm - N/A   Overcast
7:35 AM 64.4 °F - N/A% 29.85 in 2.5 mi Calm Calm - N/A   Overcast
7:55 AM 64.4 °F - N/A% 29.85 in 3.0 mi Calm Calm - N/A   Overcast
8:15 AM 64.4 °F - N/A% 29.86 in 3.0 mi ESE 3.5 mph - N/A   Overcast
8:35 AM 66.2 °F - N/A% 29.86 in 3.0 mi Calm Calm - N/A   Overcast
8:55 AM 66.2 °F - N/A% 29.86 in 3.0 mi Calm Calm - N/A   Overcast
9:15 AM 68.0 °F - N/A% 29.86 in 4.0 mi Calm Calm - N/A   Haze
9:35 AM 68.0 °F - N/A% 29.86 in 5.0 mi Calm Calm - N/A   Haze
9:55 AM 68.0 °F - N/A% 29.87 in 5.0 mi Calm Calm - N/A   Haze
10:15 AM 68.0 °F - N/A% 29.87 in 5.0 mi Calm Calm - N/A   Haze
10:35 AM 68.0 °F - N/A% 29.87 in 2.5 mi Calm Calm - N/A   Overcast
10:55 AM 68.0 °F - N/A% 29.87 in 4.0 mi Calm Calm - N/A   Haze
11:15 AM 69.8 °F - N/A% 29.86 in 7.0 mi Calm Calm - N/A   Overcast
11:35 AM 69.8 °F - N/A% 29.86 in 7.0 mi Calm Calm - N/A   Overcast
11:55 AM 69.8 °F - N/A% 29.85 in 7.0 mi Calm Calm - N/A   Overcast
12:15 PM 69.8 °F 66.2 °F 88% 29.85 in 7.0 mi Calm Calm - N/A   Overcast
12:35 PM 69.8 °F 66.2 °F 88% 29.85 in 10.0 mi East 3.5 mph - N/A   Overcast
12:55 PM 71.6 °F 64.4 °F 78% 29.85 in 10.0 mi ESE 3.5 mph - N/A   Overcast
1:15 PM 71.6 °F 64.4 °F 78% 29.84 in 10.0 mi ESE 3.5 mph - N/A   Overcast
1:35 PM 71.6 °F 64.4 °F 78% 29.84 in 10.0 mi Calm Calm - N/A   Overcast
1:55 PM 73.4 °F 60.8 °F 65% 29.82 in 10.0 mi ENE 3.5 mph - N/A   Mostly Cloudy
2:15 PM 73.4 °F 51.8 °F 47% 29.82 in 10.0 mi East 3.5 mph - N/A   Mostly Cloudy
2:35 PM 73.4 °F 50.0 °F 44% 29.82 in 10.0 mi Calm Calm - N/A   Overcast
2:55 PM 73.4 °F 50.0 °F 44% 29.82 in 10.0 mi Calm Calm - N/A   Overcast
3:15 PM 73.4 °F 53.6 °F 50% 29.82 in 10.0 mi East 3.5 mph - N/A   Overcast
3:35 PM 73.4 °F 51.8 °F 47% 29.82 in 10.0 mi East 3.5 mph - N/A   Overcast
3:55 PM 73.4 °F 50.0 °F 44% 29.82 in 10.0 mi NE 4.6 mph - N/A   Overcast
4:15 PM 73.4 °F 50.0 °F 44% 29.83 in 10.0 mi ENE 3.5 mph - N/A   Overcast
4:35 PM 73.4 °F 50.0 °F 44% 29.83 in 10.0 mi ENE 4.6 mph - N/A   Mostly Cloudy
4:55 PM 71.6 °F 53.6 °F 53% 29.83 in 10.0 mi East 5.8 mph - N/A   Overcast
5:15 PM 71.6 °F 59.0 °F 64% 29.83 in 10.0 mi East 5.8 mph - N/A   Scattered Clouds
5:35 PM 71.6 °F 55.4 °F 57% 29.83 in 10.0 mi East 4.6 mph - N/A   Clear
5:55 PM 71.6 °F 62.6 °F 73% 29.84 in 10.0 mi East 5.8 mph - N/A   Clear
6:15 PM 69.8 °F 64.4 °F 83% 29.84 in 10.0 mi East 4.6 mph - N/A   Scattered Clouds
6:35 PM 68.0 °F 64.4 °F 88% 29.85 in 10.0 mi East 6.9 mph - N/A   Scattered Clouds
6:55 PM 68.0 °F - N/A% 29.85 in 10.0 mi East 4.6 mph - N/A   Clear
7:35 PM 66.2 °F - N/A% 29.85 in 10.0 mi East 4.6 mph - N/A   Scattered Clouds
7:55 PM 66.2 °F - N/A% 29.86 in 10.0 mi ESE 5.8 mph - N/A   Overcast
8:15 PM 66.2 °F - N/A% 29.86 in 10.0 mi East 4.6 mph - N/A   Overcast
8:35 PM 66.2 °F - N/A% 29.87 in 10.0 mi East 6.9 mph - N/A   Overcast
8:55 PM 66.2 °F - N/A% 29.88 in 10.0 mi East 5.8 mph - N/A   Overcast
9:15 PM 66.2 °F - N/A% 29.88 in 10.0 mi East 5.8 mph - N/A   Overcast
9:35 PM 66.2 °F - N/A% 29.89 in 10.0 mi East 5.8 mph - N/A   Overcast
9:55 PM 64.4 °F - N/A% 29.89 in 10.0 mi ESE 4.6 mph - N/A   Overcast
10:15 PM 64.4 °F - N/A% 29.89 in 10.0 mi East 3.5 mph - N/A   Overcast
10:35 PM 64.4 °F - N/A% 29.89 in 10.0 mi ESE 3.5 mph - N/A   Overcast
10:55 PM 64.4 °F - N/A% 29.89 in 10.0 mi ESE 3.5 mph - N/A   Mostly Cloudy
11:15 PM 62.6 °F - N/A% 29.90 in 10.0 mi Calm Calm - N/A   Mostly Cloudy
11:35 PM 62.6 °F - N/A% 29.90 in 10.0 mi Calm Calm - N/A   Overcast
11:55 PM 62.6 °F - N/A% 29.90 in 10.0 mi East 3.5 mph - N/A   Overcast